CW4713 Weather Reports


Display with metric or nautical units.
time (UTC)temp
F
wind
direction
speed
MPH
gust
MPH
rain 1hr
in
rain 24hr
in
rain mn
in
humidity
%
barometer
mb
20260510073304 43 287 0.0 2.0 0.00 0.30 0.29 90 994.0
20260510072804 43 356 1.0 3.0 0.00 0.31 0.29 90 994.0
20260510072306 43 341 3.0 5.0 0.00 0.31 0.29 90 993.9
20260510071804 43 268 0.0 0.0 0.00 0.31 0.29 90 993.8
20260510071304 43 268 0.0 0.0 0.00 0.31 0.29 90 993.9
20260510070804 43 268 0.0 0.0 0.00 0.31 0.29 90 993.9
20260510070305 43 268 0.0 0.0 0.00 0.32 0.29 90 993.9
20260510065804 43 268 0.0 0.0 0.00 0.32 0.29 90 993.8
20260510065306 43 268 0.0 0.0 0.00 0.32 0.29 89 993.8
20260510064804 43 268 0.0 0.0 0.00 0.32 0.29 89 993.8
20260510064304 44 268 0.0 0.0 0.00 0.32 0.29 89 993.7
20260510063804 44 268 1.0 1.0 0.00 0.32 0.29 89 993.7
20260510063304 44 272 0.0 2.0 0.00 0.33 0.29 89 993.7
20260510062804 44 290 1.0 2.0 0.00 0.33 0.29 89 993.6
20260510051804 46 298 1.0 3.0 0.00 0.36 0.29 86 993.1
20260510051304 46 269 1.0 3.0 0.00 0.36 0.29 86 993.0
20260510050803 46 309 1.0 3.0 0.00 0.36 0.29 86 993.0
20260510050304 46 301 0.0 2.0 0.00 0.36 0.29 86 993.0
20260510045804 46 315 1.0 2.0 0.00 0.36 0.29 86 992.9
20260510045306 46 253 1.0 2.0 0.00 0.36 0.29 86 992.9
20260510044804 46 317 2.0 3.0 0.00 0.36 0.29 86 992.9
20260510044304 46 218 1.0 2.0 0.00 0.36 0.29 86 992.9
20260510043804 46 261 0.0 3.0 0.00 0.36 0.29 86 992.9
20260510043304 46 335 1.0 3.0 0.00 0.36 0.29 86 992.9
20260510042804 46 16 0.0 1.0 0.00 0.36 0.29 86 992.9
20260510042306 46 14 1.0 5.0 0.00 0.36 0.29 86 992.9
20260510041804 46 324 2.0 5.0 0.00 0.36 0.29 86 992.9
20260510041304 46 313 2.0 3.0 0.00 0.36 0.29 86 992.7
20260510040804 46 298 0.0 3.0 0.00 0.36 0.29 86 992.9
20260510040303 46 340 3.0 5.0 0.00 0.36 0.29 86 992.8
20260510035804 46 3 1.0 2.0 0.00 0.36 0.29 86 992.9
20260510035306 46 319 2.0 3.0 0.00 0.36 0.29 86 992.8
20260510034804 46 316 2.0 3.0 0.00 0.36 0.29 86 992.9
20260510034304 46 308 1.0 2.0 0.00 0.36 0.29 86 992.9
20260510033804 46 343 2.0 5.0 0.00 0.36 0.29 86 992.8
20260510033304 46 282 1.0 3.0 0.00 0.36 0.29 86 992.8
20260510032804 46 317 2.0 3.0 0.00 0.36 0.29 86 992.7
20260510032306 47 312 2.0 6.0 0.00 0.36 0.29 86 992.7
20260510031804 47 348 3.0 6.0 0.00 0.36 0.29 86 992.7
20260510031304 47 309 2.0 5.0 0.00 0.36 0.29 85 992.7
20260510020804 47 356 2.0 5.0 0.00 0.36 0.29 86 992.9
20260510020305 47 348 2.0 5.0 0.00 0.36 0.29 86 992.9
20260510015805 47 346 3.0 5.0 0.00 0.36 0.29 86 992.8
20260510015306 47 288 1.0 3.0 0.00 0.36 0.29 86 992.9
20260510014804 47 298 1.0 3.0 0.00 0.36 0.29 86 992.9
20260510014304 47 304 3.0 7.0 0.00 0.36 0.29 86 992.8
20260510013804 47 334 2.0 5.0 0.00 0.36 0.29 86 992.8
20260510013304 47 48 1.0 2.0 0.00 0.36 0.29 86 992.8
20260510012804 47 36 1.0 5.0 0.00 0.36 0.29 87 992.8
20260510012307 47 332 3.0 6.0 0.00 0.36 0.29 87 992.8
20260510011804 46 10 1.0 3.0 0.00 0.36 0.29 87 992.8
20260510011304 46 274 0.0 2.0 0.00 0.36 0.29 88 992.8
20260510010304 46 328 3.0 6.0 0.00 0.36 0.29 88 992.8
20260510005804 46 354 5.0 6.0 0.00 0.36 0.29 88 992.8
20260510005306 46 121 0.0 2.0 0.00 0.36 0.29 88 992.9
20260510004804 46 308 2.0 5.0 0.00 0.36 0.29 88 992.9
20260510004304 46 331 2.0 5.0 0.00 0.36 0.29 89 992.9
20260510003803 45 307 0.0 5.0 0.00 0.36 0.29 89 992.9
20260510003304 45 299 1.0 2.0 0.00 0.36 0.29 89 993.0
20260510002804 45 283 1.0 2.0 0.00 0.36 0.29 89 993.0
20260510002306 45 13 2.0 3.0 0.00 0.36 0.29 89 992.9
20260510001804 45 349 2.0 5.0 0.00 0.36 0.29 89 993.0
20260510001304 45 334 4.0 6.0 0.00 0.36 0.29 89 993.0
20260510000804 44 349 4.0 7.0 0.00 0.36 0.29 89 993.0
20260510000304 44 339 2.0 5.0 0.00 0.36 0.29 89 993.0
20260509235804 44 343 2.0 5.0 0.00 0.36 0.29 89 993.0
20260509235307 44 358 4.0 8.0 0.00 0.36 0.29 89 992.8
20260509234804 45 330 3.0 9.0 0.00 0.36 0.29 89 992.9
20260509234305 45 337 3.0 6.0 0.00 0.36 0.29 89 992.9
20260509233804 45 320 3.0 6.0 0.00 0.36 0.29 89 992.9
20260509233304 45 310 3.0 5.0 0.00 0.36 0.29 89 992.8
20260509232804 44 62 4.0 6.0 0.00 0.36 0.29 90 992.8
20260509232306 44 51 1.0 3.0 0.00 0.36 0.29 90 992.8
20260509231805 44 6 3.0 6.0 0.00 0.36 0.29 90 992.7
20260509231304 44 18 0.0 3.0 0.00 0.36 0.29 90 992.8
20260509230805 44 17 2.0 5.0 0.00 0.36 0.29 91 992.8
20260509230304 43 32 0.0 2.0 0.00 0.36 0.29 91 992.8
20260509225804 43 35 3.0 5.0 0.00 0.36 0.29 91 993.0
20260509225306 43 32 2.0 5.0 0.00 0.36 0.29 91 992.9
20260509224804 43 91 0.0 2.0 0.00 0.36 0.29 92 993.0
20260509224305 43 17 2.0 3.0 0.00 0.36 0.29 92 993.0
20260509223804 43 61 1.0 5.0 0.00 0.36 0.29 92 993.1
20260509223304 43 94 2.0 5.0 0.00 0.36 0.29 92 993.0
20260509222804 43 46 4.0 7.0 0.00 0.36 0.29 92 992.9
20260509222307 43 62 2.0 5.0 0.00 0.36 0.29 92 992.9
20260509221804 42 39 2.0 3.0 0.00 0.36 0.29 92 993.0
20260509221304 42 1 3.0 5.0 0.00 0.36 0.29 92 992.8
20260509220804 42 59 3.0 6.0 0.00 0.36 0.29 93 992.9
20260509220305 42 50 3.0 6.0 0.00 0.36 0.29 93 992.9
20260509215804 42 3 4.0 6.0 0.00 0.36 0.29 93 993.0
20260509215306 42 61 2.0 5.0 0.00 0.36 0.29 94 992.9
20260509214804 41 52 3.0 6.0 0.00 0.36 0.29 94 992.9
20260509214304 42 8 3.0 6.0 0.00 0.36 0.29 94 992.9
20260509213804 42 12 3.0 5.0 0.00 0.36 0.29 94 992.9
20260509213305 42 33 5.0 6.0 0.00 0.36 0.29 94 992.8
20260509212804 41 49 2.0 5.0 0.00 0.36 0.29 94 992.8
20260509212306 41 80 3.0 5.0 0.00 0.36 0.29 94 992.8
20260509211804 41 29 3.0 6.0 0.00 0.36 0.29 95 992.7
20260509211304 41 42 2.0 6.0 0.00 0.36 0.29 95 992.8
20260509210804 41 2 3.0 7.0 0.00 0.36 0.29 95 992.7
20260509210304 41 17 2.0 6.0 0.00 0.36 0.29 95 992.8
20260509205804 41 0 3.0 6.0 0.00 0.36 0.29 95 992.8
20260509204804 41 322 2.0 5.0 0.00 0.36 0.29 95 992.8
20260509204304 41 335 2.0 5.0 0.00 0.36 0.29 95 992.8
20260509203804 40 347 2.0 6.0 0.00 0.36 0.29 95 992.8
20260509203304 40 358 2.0 5.0 0.00 0.36 0.29 96 992.8
20260509202804 40 355 3.0 6.0 0.00 0.36 0.29 96 992.7
20260509202306 40 347 2.0 3.0 0.00 0.36 0.29 96 992.8
20260509201804 40 342 2.0 5.0 0.00 0.36 0.29 96 992.8
20260509201304 40 344 4.0 6.0 0.00 0.36 0.29 96 992.8
20260509200804 40 19 2.0 3.0 0.00 0.36 0.29 96 992.7
20260509200304 39 339 2.0 6.0 0.00 0.36 0.29 96 992.8
20260509195804 39 341 1.0 6.0 0.00 0.36 0.29 96 992.8
20260509195306 39 338 3.0 5.0 0.00 0.36 0.29 96 992.8
20260509194804 39 322 1.0 5.0 0.00 0.36 0.29 96 992.8
20260509194304 39 337 1.0 5.0 0.00 0.36 0.29 96 992.7
20260509193804 39 319 2.0 5.0 0.00 0.36 0.29 96 992.7
20260509193304 39 350 2.0 5.0 0.00 0.36 0.29 96 992.8
20260509192804 39 335 4.0 6.0 0.00 0.36 0.29 96 992.6
20260509192306 39 338 3.0 5.0 0.00 0.36 0.29 96 992.7
20260509191804 39 338 3.0 5.0 0.00 0.36 0.29 96 992.6
20260509191304 39 346 1.0 5.0 0.00 0.36 0.29 96 992.7
20260509190804 39 336 3.0 6.0 0.00 0.36 0.29 96 992.7
20260509190304 38 3 0.0 5.0 0.00 0.36 0.29 96 992.8
20260509185804 38 311 2.0 5.0 0.00 0.36 0.29 96 992.7
20260509185306 38 356 1.0 5.0 0.00 0.36 0.29 96 992.7
20260509184804 38 333 3.0 6.0 0.00 0.36 0.29 96 992.7
20260509184304 38 328 3.0 5.0 0.00 0.36 0.29 96 992.8
20260509183804 38 324 2.0 3.0 0.00 0.36 0.29 96 992.8
20260509183304 38 6 3.0 5.0 0.01 0.36 0.29 96 992.8
20260509182804 38 334 2.0 5.0 0.01 0.36 0.29 96 992.8
20260509182306 38 339 2.0 6.0 0.01 0.36 0.29 96 992.8
20260509181804 38 334 4.0 5.0 0.01 0.36 0.29 96 992.8
20260509181304 38 347 2.0 3.0 0.01 0.36 0.29 96 992.7
20260509180803 38 328 3.0 5.0 0.01 0.36 0.29 96 992.7
20260509180304 38 2 2.0 5.0 0.01 0.36 0.29 96 992.7
20260509175804 38 6 2.0 2.0 0.01 0.36 0.29 96 992.6
20260509175306 38 330 1.0 2.0 0.01 0.36 0.29 96 992.7
20260509174804 38 346 2.0 5.0 0.01 0.36 0.29 96 992.7
20260509174304 38 349 3.0 5.0 0.01 0.36 0.29 96 992.7
20260509173804 37 351 2.0 6.0 0.01 0.36 0.29 96 992.7
20260509173304 37 350 0.0 2.0 0.00 0.35 0.28 96 992.7
20260509172804 37 10 2.0 5.0 0.00 0.35 0.28 96 992.7
20260509172306 37 4 2.0 5.0 0.00 0.35 0.28 95 992.8
20260509171804 37 0 1.0 2.0 0.00 0.35 0.28 96 992.8
20260509171304 37 28 1.0 2.0 0.00 0.35 0.28 96 993.0
20260509170805 37 76 1.0 2.0 0.00 0.35 0.28 96 993.0
20260509170304 37 9 1.0 2.0 0.01 0.35 0.28 95 993.0
20260509165804 37 50 0.0 1.0 0.01 0.35 0.28 95 993.1
20260509165306 37 22 0.0 2.0 0.01 0.35 0.28 95 993.2
20260509164804 37 3 0.0 2.0 0.01 0.35 0.28 95 993.1
20260509164304 37 42 1.0 2.0 0.01 0.35 0.28 95 993.1
20260509163804 37 28 0.0 1.0 0.01 0.35 0.28 95 993.2
20260509152803 37 284 0.0 0.0 0.02 0.34 0.27 95 993.4
20260509152306 37 284 0.0 1.0 0.03 0.34 0.27 95 993.4
20260509151804 37 3 2.0 3.0 0.03 0.34 0.27 95 993.4
20260509151304 37 5 3.0 5.0 0.03 0.34 0.27 95 993.5
20260509150804 37 359 3.0 5.0 0.04 0.34 0.27 95 993.5
20260509150304 37 359 3.0 5.0 0.03 0.33 0.26 95 993.5
20260509145804 37 359 3.0 5.0 0.04 0.33 0.26 95 993.5
20260509145306 37 5 2.0 6.0 0.05 0.33 0.26 95 993.6
20260509144804 37 344 3.0 5.0 0.05 0.33 0.26 95 993.6
20260509144304 37 10 3.0 6.0 0.04 0.32 0.25 95 993.6
20260509143804 37 355 2.0 6.0 0.05 0.32 0.25 95 993.7
20260509143303 37 10 3.0 6.0 0.05 0.32 0.25 95 993.7
20260509142804 37 18 4.0 7.0 0.06 0.32 0.25 95 993.8
20260509142307 37 357 3.0 7.0 0.05 0.31 0.24 95 993.8
20260509141804 37 15 3.0 5.0 0.06 0.31 0.24 95 993.9
20260509141305 37 5 4.0 6.0 0.06 0.31 0.24 95 994.0
20260509140804 37 8 2.0 5.0 0.06 0.30 0.23 95 994.0
20260509140304 37 21 1.0 5.0 0.06 0.30 0.23 95 994.1
20260509135804 37 7 0.0 2.0 0.05 0.29 0.22 95 994.1
20260509135306 37 20 0.0 1.0 0.04 0.28 0.21 94 994.2
20260509134804 37 8 1.0 2.0 0.05 0.28 0.21 94 994.3
20260509134304 37 52 1.0 2.0 0.05 0.28 0.21 94 994.3
20260509133805 37 28 0.0 0.0 0.05 0.27 0.20 94 994.3
20260509133304 37 29 0.0 1.0 0.05 0.27 0.20 94 994.4
20260509132804 37 17 0.0 1.0 0.05 0.26 0.19 94 994.4
20260509132306 37 55 1.0 2.0 0.05 0.26 0.19 94 994.5
20260509121304 37 10 0.0 2.0 0.02 0.20 0.13 93 995.4
20260509120804 37 38 2.0 2.0 0.03 0.20 0.13 93 995.4
20260509120304 37 14 0.0 2.0 0.03 0.20 0.13 93 995.5
20260509115804 37 356 1.0 3.0 0.03 0.20 0.13 93 995.6
20260509115307 37 39 2.0 3.0 0.02 0.19 0.12 93 995.6
20260509114804 37 17 0.0 0.0 0.03 0.19 0.12 93 995.7
20260509114304 37 17 0.0 0.0 0.03 0.19 0.12 93 995.7
20260509113804 37 17 0.0 1.0 0.03 0.19 0.12 93 995.8
20260509113304 37 42 0.0 1.0 0.02 0.18 0.11 93 995.9
20260509112804 37 24 0.0 2.0 0.02 0.18 0.11 92 996.0
20260509112306 37 162 0.0 0.0 0.02 0.18 0.11 92 996.1
20260509111804 37 162 0.0 0.0 0.03 0.18 0.11 92 996.1
20260509111304 37 162 0.0 0.0 0.03 0.18 0.11 92 996.3
20260509110804 37 162 0.0 0.0 0.02 0.17 0.10 92 996.3
20260509110305 37 162 0.0 0.0 0.03 0.17 0.10 92 996.4
20260509105805 37 162 0.0 0.0 0.03 0.17 0.10 92 996.5
20260509105306 37 162 0.0 0.0 0.03 0.17 0.10 92 996.7
20260509104804 37 162 0.0 0.0 0.02 0.16 0.09 92 996.7
20260509104304 37 162 0.0 0.0 0.03 0.16 0.09 92 996.8
20260509103805 37 162 0.0 0.0 0.03 0.16 0.09 92 996.8
20260509103304 37 162 0.0 0.0 0.03 0.16 0.09 91 996.9
20260509102804 37 162 0.0 0.0 0.03 0.16 0.09 92 996.9
20260509102306 37 162 0.0 0.0 0.04 0.16 0.09 92 997.0
20260509101804 37 162 0.0 0.0 0.03 0.15 0.08 92 997.0
20260509101304 37 162 0.0 0.0 0.03 0.15 0.08 92 997.2
20260509100804 37 162 0.0 1.0 0.03 0.15 0.08 91 997.3
20260509100304 37 180 1.0 2.0 0.03 0.14 0.07 91 997.2
20260509095804 37 174 1.0 2.0 0.03 0.14 0.07 91 997.3
20260509095306 38 175 1.0 2.0 0.04 0.14 0.07 91 997.3
20260509094804 38 193 1.0 2.0 0.04 0.14 0.07 91 997.4
20260509094304 38 140 0.0 0.0 0.03 0.13 0.06 91 997.4
20260509093804 38 141 1.0 2.0 0.03 0.13 0.06 91 997.5
20260509093304 38 144 1.0 2.0 0.04 0.13 0.06 90 997.6
20260509092804 38 116 0.0 0.0 0.04 0.13 0.06 90 997.6
20260509092306 38 116 0.0 0.0 0.03 0.12 0.05 90 997.7
20260509091804 38 116 0.0 0.0 0.04 0.12 0.05 90 997.8
20260509091304 38 116 0.0 0.0 0.04 0.12 0.05 90 997.9
20260509090804 38 116 0.0 0.0 0.05 0.12 0.05 90 998.0
20260509090305 38 116 0.0 0.0 0.04 0.11 0.04 90 998.1
20260509085805 38 116 0.0 2.0 0.04 0.11 0.04 90 998.2
20260509085306 38 135 1.0 2.0 0.03 0.10 0.03 90 998.3
20260509084804 38 121 0.0 1.0 0.03 0.10 0.03 90 998.3
20260509084304 38 59 0.0 0.0 0.04 0.10 0.03 89 998.4
20260509083804 38 59 0.0 0.0 0.04 0.10 0.03 89 998.4
20260509083305 38 59 0.0 0.0 0.04 0.09 0.02 89 998.5
20260509082804 38 59 0.0 0.0 0.04 0.09 0.02 89 998.6
20260509082307 38 59 0.0 0.0 0.04 0.09 0.02 89 998.7
20260509081804 39 59 0.0 1.0 0.03 0.08 0.01 89 998.9
20260509081304 39 45 0.0 2.0 0.03 0.08 0.01 89 998.9
20260509080804 39 49 0.0 2.0 0.02 0.07 0.00 89 999.1
20260509080305 39 54 1.0 2.0 0.03 0.07 0.00 89 999.1
20260509075805 39 3 0.0 3.0 0.03 0.07 0.07 88 999.1